{"data":{"norad_id":63063,"epoch":"2026-09-20T09:05:01.364064Z","epoch_age_seconds":172759,"freshness":"FRESH","line1":"1 63063U 25035M   26263.37848801  .00145269  00000+0  11130-2 0  9995","line2":"2 63063  43.0009 281.5250 0001955 250.7216 109.3440 15.70901066 91840","mean_motion":15.70901066,"eccentricity":0.0001955,"inclination_deg":43.0009,"raan_deg":281.525,"arg_perigee_deg":250.7216,"mean_anomaly_deg":109.344,"bstar":0.001113,"rev_number":9184,"period_min":91.667134943557,"perigee_km":355.00394271899,"apogee_km":357.63711561289,"semimajor_km":6734.4575291659,"source":"CELESTRAK","updated_at":"2026-09-22T09:00:49.752635Z"}}